SCP
6 5 5 4 3 3 3 2 2 2 1 1 1 1 1 1 1 2 1 1 1 1 1 1 1 1 1 1 1 1 1 1 1 0 0 0 0 0 0 0 0 0 0
6 5 5 4 4 3 3 3 2 2 2 1 1 1 1 1 2 1 1 1 1 1 1 1 1 1 1 1 1 1 1 1 1 0 0 0 0 0 0 0 0 0 0
5 5 5 4 4 4 3 3 3 2 2 2 2 2 2 2 2 2 2 2 2 1 1 1 1 1 1 1 1 1 1 1 1 0 0 0 0 0 0 0 0 0 0
4 4 4 4 4 4 4 3 3 3 3 2 2 2 2 2 2 3 2 2 2 2 2 1 1 1 1 1 1 1 1 1 1 1 0 0 0 0 1 1 1 0 0
4 4 5 5 5 4 4 3 4 4 4 3 3 3 2 2 2 3 3 3 2 2 2 2 1 1 1 1 1 1 1 1 1 1 0 0 0 1 1 1 1 1 1
4 4 5 6 5 5 4 3 4 4 4 4 3 3 3 2 2 2 3 3 3 2 2 2 2 1 1 1 1 1 0 1 1 1 0 0 0 1 1 1 1 1 1
4 5 5 6 6 5 4 4 3 4 4 4 4 4 3 3 3 2 2 2 2 2 2 2 2 2 1 1 0 0 0 0 0 0 0 0 0 1 1 1 1 1 1
5 5 5 5 5 5 5 4 3 3 4 4 4 4 3 3 2 2 1 1 1 2 2 3 3 2 1 1 0 0 0 0 0 0 0 0 0 0 1 1 1 1 1
6 6 5 4 4 5 5 4 3 3 3 4 4 3 3 3 2 2 1 1 1 1 2 3 3 2 1 1 0 0 0 0 0 0 0 0 0 0 1 1 1 1 1
6 6 6 5 4 4 4 4 3 3 3 3 3 2 2 2 2 1 1 1 1 1 2 3 3 3 2 1 0 0 0 0 0 0 0 0 0 0 1 1 1 1 1
5 6 5 5 4 4 4 3 3 3 2 2 2 2 2 2 1 1 1 1 1 1 2 3 3 3 2 1 0 0 0 0 0 0 0 0 0 0 1 1 1 1 1
5 5 5 4 4 3 3 3 3 3 2 2 2 2 2 1 1 1 1 1 1 1 1 2 3 2 1 0 0 0 0 0 0 0 0 0 0 0 1 1 1 1 1
5 5 5 4 3 3 3 3 3 3 3 2 2 2 2 2 1 1 1 0 0 0 1 2 2 2 1 0 0 0 0 0 0 0 0 0 0 0 1 1 1 1 1
5 5 5 4 3 3 3 3 3 3 3 3 2 2 2 2 2 1 1 1 1 0 1 1 2 1 0 0 0 0 0 0 0 0 0 0 0 0 1 1 1 0 0
5 5 5 4 3 3 3 3 3 2 3 3 3 3 2 2 2 2 1 1 1 1 1 1 1 1 0 0 0 0 0 0 0 0 0 0 0 0 1 1 1 0 0
5 5 4 3 3 3 4 3 3 2 2 3 3 3 3 3 3 3 2 1 1 1 1 1 1 1 0 0 0 0 0 0 0 0 0 0 0 0 1 1 1 1 0
5 4 3 3 3 3 4 4 3 3 2 3 3 3 3 3 4 3 2 2 1 1 1 1 1 0 0 0 0 0 0 0 0 0 0 0 0 0 0 1 1 1 0
4 4 3 2 2 3 4 4 4 3 3 3 3 3 3 4 4 4 3 2 1 1 1 1 1 0 0 0 0 0 0 0 0 0 0 0 0 0 0 1 1 1 0
4 3 3 2 2 2 3 4 4 4 3 3 3 3 3 4 4 5 4 2 1 1 1 1 0 0 0 0 0 0 0 0 0 0 0 0 0 0 0 0 0 0 0
3 3 2 2 2 2 2 3 3 3 3 3 3 3 3 4 4 5 3 2 1 0 0 0 0 0 0 0 0 0 0 0 0 0 0 0 0 0 0 0 0 0 0
2 2 2 2 2 2 2 2 3 2 2 2 2 2 3 4 4 4 3 1 0 0 0 0 0 0 0 0 0 0 0 0 0 0 0 0 0 0 0 0 0 0 0
1 1 1 1 1 2 2 2 2 2 1 1 1 2 2 3 4 4 2 1 0 0 0 0 0 0 0 0 0 0 0 0 0 0 0 0 0 0 0 0 0 0 0
1 1 1 1 1 2 2 2 2 2 1 1 1 2 2 3 3 3 1 0 0 0 0 0 0 0 0 0 0 0 0 0 0 0 0 0 0 0 0 0 0 0 0
1 1 0 0 1 1 2 2 2 2 1 1 1 1 2 2 2 1 1 0 0 0 0 0 0 0 0 0 0 0 0 0 0 0 0 0 0 0 0 0 0 0 0
1 1 0 0 0 1 1 2 2 2 1 1 1 1 1 1 1 0 0 0 0 0 1 1 1 1 1 0 0 0 0 0 0 0 0 0 0 0 0 0 0 0 0
1 1 0 0 0 0 1 2 2 1 1 1 1 1 0 0 0 0 0 0 0 0 1 1 1 1 1 0 0 0 0 0 0 0 0 0 0 0 0 0 0 0 0
Wind_Speed
6 9 10 9 10 10 9 10 10 10 10 10 10 10 10 10 11 11 11 11 12 12 12 12 12 13 13 13 14 14 14 14 13 13 13 13 12 12 13 12 11 8 12
7 10 11 10 10 10 10 10 10 10 9 10 10 10 10 10 10 10 11 11 11 12 12 12 12 13 13 13 13 13 12 12 11 11 12 11 11 11 12 12 11 8 11
9 10 11 9 10 10 10 10 9 10 9 9 9 9 9 9 10 10 10 11 11 11 11 11 12 13 13 13 12 12 11 9 9 9 8 5 7 10 10 11 11 10 10
8 10 10 10 10 10 10 9 9 9 9 9 9 9 9 9 9 9 10 10 11 11 11 11 11 12 12 11 11 10 9 8 7 7 5 5 5 9 9 9 10 10 10
8 8 10 10 10 10 10 9 9 9 9 9 8 8 8 8 9 9 9 10 10 10 11 11 11 11 11 10 9 9 7 6 7 6 5 5 4 8 9 9 9 9 9
7 8 9 10 10 10 10 10 9 9 9 8 8 8 8 8 8 9 9 9 10 11 11 11 11 11 10 9 8 7 6 5 5 4 5 5 4 8 9 8 8 8 8
7 7 8 9 10 9 9 9 9 9 8 8 8 8 8 8 8 9 9 9 10 11 11 11 10 10 9 9 8 6 5 5 3 4 4 4 4 8 8 8 7 7 7
7 7 7 8 8 8 8 8 8 8 8 8 8 8 8 8 8 8 9 9 9 10 10 10 9 9 8 8 7 5 6 5 4 5 4 3 5 7 7 7 7 6 6
6 6 5 6 6 6 6 7 8 8 7 8 7 7 7 8 8 8 9 8 8 9 9 9 9 8 8 6 5 4 4 5 3 3 4 3 5 6 6 6 6 6 6
5 5 4 4 5 4 4 6 6 7 7 7 7 6 7 7 7 7 8 8 8 8 8 8 8 8 7 6 4 2 4 4 3 3 2 3 5 5 5 5 5 5 5
4 3 3 4 4 3 3 5 5 6 6 7 6 6 5 4 4 4 6 7 7 7 7 7 7 6 6 4 2 1 3 1 3 2 2 4 4 5 5 5 5 4 5
2 2 2 3 3 3 3 3 3 3 4 3 3 4 2 2 3 4 6 6 6 6 6 6 6 5 3 1 1 1 1 1 2 2 2 4 4 3 3 4 4 4 4
1 2 2 3 3 2 2 2 1 2 2 3 3 2 2 2 2 3 2 3 4 3 2 4 3 2 2 1 1 1 0 1 1 1 2 3 2 2 3 3 3 3 4
1 1 1 2 3 2 2 2 2 2 2 2 3 2 2 2 2 2 2 2 2 2 2 2 2 2 2 2 2 1 0 1 1 1 2 2 2 2 3 3 3 3 4
1 1 0 2 3 3 2 2 2 2 2 2 2 2 2 2 2 2 2 2 2 2 2 2 2 2 1 1 1 1 1 1 1 1 1 2 1 1 3 3 4 4 4
1 1 1 2 2 3 2 2 2 1 2 2 2 2 2 2 2 2 2 2 1 1 1 2 2 2 1 1 1 1 1 1 1 1 2 1 1 1 3 4 4 5 5
1 1 1 2 2 2 3 2 1 1 2 2 2 2 2 3 3 2 2 1 1 1 1 1 1 1 1 1 1 1 1 1 1 1 1 1 1 1 2 4 4 5 6
1 1 1 0 2 2 2 2 2 1 1 1 1 2 2 2 2 2 2 2 1 1 1 1 1 1 1 1 1 1 1 1 1 1 1 1 1 1 1 3 4 5 6
1 1 1 1 1 1 2 2 2 2 1 1 1 1 2 2 2 2 2 2 1 1 1 1 1 1 1 0 1 1 1 1 2 2 2 2 2 2 1 2 3 4 5
2 2 2 2 1 1 1 2 2 1 1 1 1 1 2 2 2 2 2 2 2 1 1 1 2 1 1 1 1 1 1 2 2 2 2 2 2 2 2 2 2 3 5
1 2 2 2 2 1 2 2 2 2 1 1 1 1 1 1 2 2 2 2 1 1 2 2 2 2 1 1 1 1 2 2 2 2 2 2 2 2 2 2 2 2 2
1 2 2 2 2 2 2 2 2 2 2 1 1 1 1 1 1 1 2 2 2 1 1 2 2 2 1 1 1 0 1 2 2 2 2 2 2 2 2 3 2 2 2
1 2 2 2 2 2 3 2 2 1 1 1 1 1 1 1 2 1 2 2 2 2 2 2 2 3 3 2 1 2 2 2 2 2 3 2 2 2 2 2 3 2 2
2 1 2 2 2 2 2 3 4 3 3 3 2 2 2 1 1 2 2 2 2 2 2 2 2 1 3 2 1 1 1 1 1 2 2 2 2 3 3 2 2 3 3
2 2 2 2 2 2 2 3 4 3 3 3 2 3 2 2 2 2 2 2 2 2 2 2 1 1 1 2 2 1 1 1 1 2 3 3 2 3 2 3 2 2 2
1 2 2 3 2 2 2 4 4 5 4 4 4 3 2 2 2 2 2 2 2 2 2 2 2 2 2 2 1 1 1 2 1 1 3 3 3 3 3 2 2 2 2
Wind_Direction
118 135 136 131 129 126 121 117 113 109 106 105 103 102 101 102 103 102 101 102 101 99 96 93 92 90 87 84 82 80 78 76 75 74 71 69 69 69 67 66 66 62 63
129 137 137 133 131 129 125 120 116 110 109 107 106 103 103 105 107 105 103 103 103 101 98 95 93 91 87 86 84 82 80 78 77 77 73 68 68 69 68 66 65 63 62
126 137 140 133 131 130 126 122 120 116 114 111 109 107 104 104 108 109 107 105 104 103 101 97 94 91 88 85 84 82 81 79 78 76 70 65 66 68 69 68 67 64 63
123 134 138 134 132 130 128 128 124 121 119 116 113 110 108 104 106 111 110 108 107 106 103 100 96 93 90 87 85 83 78 71 68 66 67 64 58 67 69 67 66 63 61
110 124 130 133 133 131 130 128 124 121 121 119 115 112 110 108 107 106 108 109 107 106 105 102 98 95 93 89 85 82 75 59 51 56 60 60 55 64 67 65 64 63 60
103 117 126 129 133 132 131 130 126 124 124 123 119 115 113 110 108 106 103 107 108 107 105 103 100 97 95 91 86 78 64 38 42 61 60 56 54 67 67 63 61 62 59
101 109 127 124 129 132 134 133 133 130 129 128 124 121 117 113 108 107 105 107 112 112 109 106 103 100 98 93 84 73 50 26 55 66 63 56 55 63 66 61 59 61 58
98 102 122 122 124 128 133 137 138 135 133 130 125 124 122 115 111 110 111 109 114 115 113 110 108 105 101 97 88 71 37 24 53 72 68 59 62 64 62 61 55 57 57
94 99 116 128 125 126 132 139 140 138 135 130 126 124 120 115 114 112 115 113 114 117 116 115 113 109 105 101 91 61 28 20 36 57 71 59 65 65 61 57 51 47 51
90 98 114 130 126 121 128 131 137 139 136 130 125 120 115 114 116 115 117 116 117 120 122 119 117 114 110 105 94 38 5 6 55 59 58 60 65 62 58 52 45 39 39
89 96 116 120 120 130 135 129 128 131 130 130 128 129 127 128 127 120 121 118 119 122 130 127 126 123 117 114 106 12 339 28 67 59 57 66 65 58 51 44 36 28 25
106 111 111 121 123 126 137 140 146 141 140 141 142 148 148 135 124 122 125 122 120 123 135 140 142 139 133 143 180 291 321 43 77 74 68 70 59 47 39 31 22 15 12
129 117 121 128 129 128 122 142 143 136 146 147 148 145 133 122 123 127 132 129 130 132 149 161 168 161 151 151 164 188 236 51 83 84 81 77 55 19 8 6 1 357 355
104 94 147 137 136 135 130 137 144 142 156 156 159 156 137 128 131 140 143 148 150 146 168 182 177 163 161 161 162 177 160 96 100 104 107 88 58 5 343 336 336 335 337
147 210 210 162 150 144 136 149 149 153 159 153 150 158 133 134 143 142 147 154 158 161 181 189 170 171 166 174 171 177 165 131 133 132 130 121 81 333 318 320 320 317 318
190 215 223 177 159 154 151 164 158 149 158 141 143 158 145 146 142 144 147 156 174 182 196 187 171 164 167 172 188 189 184 172 166 152 153 162 193 289 302 305 308 312 309
181 180 202 184 159 164 157 164 146 150 153 152 147 163 165 154 146 149 151 157 178 180 200 177 146 137 167 192 205 220 208 205 190 175 180 169 181 264 297 300 304 305 305
142 147 135 120 174 178 166 161 159 160 146 151 154 161 165 153 140 143 154 163 180 154 141 165 144 137 174 198 219 242 225 210 212 198 203 191 186 193 257 291 305 306 302
172 156 135 131 170 184 174 156 152 152 148 140 144 154 143 147 142 144 160 164 150 134 130 175 140 144 161 236 242 244 236 223 224 219 215 218 204 185 198 256 288 305 311
188 167 150 155 156 169 164 149 140 133 139 132 150 158 142 148 155 144 150 151 140 140 164 168 154 143 152 196 266 279 257 242 232 220 218 216 209 206 212 223 240 279 289
185 174 176 163 169 164 164 166 167 173 163 154 165 155 160 157 149 154 149 150 150 174 193 182 156 145 148 116 84 315 283 250 226 218 218 215 219 223 223 232 233 238 263
219 201 199 189 186 187 187 175 180 176 173 172 168 149 163 156 139 154 161 171 172 185 187 184 159 150 166 150 143 168 297 301 265 242 234 226 231 227 237 241 238 241 245
231 223 224 196 201 195 187 156 150 159 160 166 182 188 196 187 176 174 186 178 171 171 188 195 179 166 182 201 172 159 179 238 292 256 233 228 233 245 251 253 250 252 250
224 210 227 217 200 191 188 172 172 181 185 195 195 196 182 180 188 191 194 187 177 177 182 203 212 189 169 187 212 225 216 195 213 292 286 253 256 259 254 262 261 256 253
206 199 213 231 225 187 195 194 184 196 197 181 178 191 188 180 187 194 183 183 182 180 188 191 191 190 186 186 186 202 240 258 244 237 273 286 286 262 256 258 249 254 257
214 202 211 213 226 196 190 206 195 197 196 184 186 192 193 185 184 191 189 180 184 186 192 195 188 184 187 189 196 195 189 200 228 235 255 268 275 274 270 264 248 252 260